Weather in Lekarstvennoye

Russia / Novosibirsk Oblast     55°00′06″N   83°38′54″E
temp.,
°C
wind,
m/s
gust,
m/s
humid.,
%
clouds,
%
prec.,
mm/h
press.,
hPa
HPBL,
m
27 february, sat
sat2701:00−24wsw61294100 0.2 1035701
04:00−25sw61195100 0.1 1036600
07:00−25sw51095100 0.3 1037506
10:00−24sw61093100 0.1 1037556
13:00−22sw5891100 0.1 1037622
16:00−21sw5790100 0.1 1037668
19:00−25sw3497100 0.1 103852
22:00−27sw349999 0.0 103976
28 february, sun
sun2801:00−29ssw349897 0.0 103972
04:00−30ssw349816 0.0 103966
07:00−30s349829 0.0 104051
10:00−26s499633 0.0 1038198
13:00−20s589253 0.0 1036342
16:00−16s488890 0.0 1033482
19:00−17sse349495 0.0 103072
22:00−15sse41094100 0.1 1027270
1 march, mon
mon101:00−13sse41094100 0.3 1024311
04:00−11sse41194100 0.3 1020349
07:00−9sse51194100 1.1 1016565
10:00−7sse71294100 1.3 1013620
13:00−4s61195100 2.9 1010749
16:000ssw91597100 2.4 1008907
19:00−1ssw91694100 3.7 1006682
22:00−1sw81497100 2.1 1006849
2 march, tue
tue201:00−2wsw71296100 3.0 1007683
04:00−7wnw1298100 0.8 100964
07:00−11wsw61194100 1.6 1012400
10:00−12wsw589498 0.1 1015401
13:00−11wsw579199 0.4 1017596
16:00−12wsw5791100 0.1 1018584
19:00−15sw3396100 0.2 101861
22:00−17ssw229687 0.0 101820
3 march, wed
wed301:00−17s119793 0.0 101720
04:00−16ese1197100 0.2 101620
07:00−16e2297100 0.3 101620
10:00−14ene129499 0.3 1015131
13:00−11ne1190100 0.6 1016292
16:00−10w2390100 0.4 1017459
19:00−13wsw4696100 0.6 1020179
22:00−16wsw239779 0.1 102227